Location: Unspecified
(0.0000°N, 0.0000°E)
Time: 17:50:39
(UTC+00:00)

deb Explorer IX - All Passes

Search period start: 18 January 2020 00:00
Search period end: 28 January 2020 00:00
Orbit: 548 x 1101 km, 38.8° (Epoch: 17 January)

Date Brightness Start Highest point End Pass type
(mag) Time Alt. Az. Time Alt. Az. Time Alt. Az.
18 Jan - 07:26:55 10° N 07:29:42 15° NE 07:32:17 10° ENE daylight
18 Jan - 09:12:13 10° WNW 09:16:40 56° SW 09:20:44 10° SE daylight
18 Jan - 20:04:14 10° SW 20:10:34 55° SE 20:17:33 10° ENE visible
18 Jan - 21:52:00 10° W 21:58:02 32° NW 22:04:22 10° NNE visible
19 Jan - 07:04:23 10° N 07:07:29 16° NE 07:10:21 10° ENE daylight
19 Jan - 08:49:56 10° WNW 08:54:29 54° SW 08:58:36 10° SE daylight
19 Jan - 19:42:00 10° SW 19:48:11 56° SE 19:55:06 10° ENE visible
19 Jan - 21:29:45 10° W 21:35:39 31° NW 21:41:54 10° NNE visible
20 Jan - 06:41:51 10° N 06:45:17 17° NE 06:48:25 10° ENE daylight
20 Jan - 08:27:37 10° WNW 08:32:18 53° SW 08:36:29 10° SE daylight
20 Jan - 19:19:45 10° SW 19:25:47 56° SE 19:32:38 10° ENE visible
20 Jan - 21:07:32 10° W 21:13:15 30° NW 21:19:22 10° NNE visible
21 Jan - 06:19:18 10° N 06:23:03 19° NE 06:26:27 10° E daylight
21 Jan - 08:05:17 10° WNW 08:10:06 51° SW 08:14:21 10° SE daylight
21 Jan - 18:57:32 10° SW 19:03:25 57° SE 19:10:08 10° ENE visible
21 Jan - 20:45:19 10° W 20:50:51 29° NW 20:56:51 10° NNE visible
22 Jan - 05:56:46 10° N 06:00:48 20° NE 06:04:26 10° E daylight
22 Jan - 07:42:55 10° WNW 07:47:52 50° SW 07:52:13 10° SE daylight
22 Jan - 18:35:19 10° SW 18:41:02 58° SE 18:47:38 10° ENE visible
22 Jan - 20:23:07 10° W 20:28:28 27° NW 20:34:17 10° NNE visible
23 Jan - 05:34:11 10° NNW 05:38:32 22° NE 05:42:25 10° E visible
23 Jan - 07:20:31 10° WNW 07:25:38 50° SW 07:30:04 10° SSE daylight
23 Jan - 18:13:07 10° SW 18:18:41 59° SE 18:25:08 10° ENE daylight
23 Jan - 20:00:57 10° W 20:06:05 26° NW 20:11:44 10° NNE visible
24 Jan - 05:11:36 10° NNW 05:16:15 23° NE 05:20:22 10° E visible
24 Jan - 06:58:05 10° WNW 07:03:22 49° SW 07:07:55 10° SSE daylight
24 Jan - 17:50:55 10° SW 17:56:20 59° SE 18:02:38 10° ENE daylight
24 Jan - 19:38:48 10° W 19:43:43 25° NW 19:49:09 10° NNE visible
25 Jan - 04:49:01 10° NNW 04:53:56 25° NE 04:58:18 10° E visible
25 Jan - 06:35:39 10° WNW 06:41:05 48° SW 06:45:46 10° SSE daylight
25 Jan - 17:28:44 10° SW 17:33:59 60° SE 17:40:09 10° ENE daylight
25 Jan - 19:16:39 10° W 19:21:21 24° NW 19:26:32 10° NNE visible
26 Jan - 04:26:26 10° NNW 04:31:36 26° NE 04:36:12 10° E visible
26 Jan - 06:13:11 10° WNW 06:18:47 48° SW 06:23:35 10° SSE daylight
26 Jan - 17:06:32 10° SW 17:11:38 61° SE 17:17:38 10° ENE daylight
26 Jan - 18:54:32 10° W 18:58:59 22° NW 19:03:55 10° NNE visible
27 Jan - 04:03:50 10° NNW 04:09:15 28° NE 04:14:05 10° E visible
27 Jan - 05:50:42 10° WNW 05:56:28 47° SW 06:01:24 10° SSE daylight
27 Jan - 16:44:22 10° SW 16:49:19 62° SE 16:55:08 10° ENE daylight
27 Jan - 18:32:26 10° W 18:36:38 21° NW 18:41:17 10° NNE visible
